Location: Paderno d�Adda
(45.6667°N, 9.4333°E)
Time: 10:47:25
(UTC+00:00)

ATLAS 3B R/B - Pass Details

Date: 22 January 2021
Orbit: 1006 x 1189 km, 63.8° (Epoch: 07 March)

Event Time Altitude Azimuth Distance (km) Brightness Sun altitude
Rises 17:15:57 0° 315° (NW) 3,890 6.1 -10.8°
Reaches altitude 10° 17:18:56 10° 304° (NW) 2,959 5.6 -11.3°
Maximum altitude 17:24:44 28° 248° (WSW) 1,958 5.0 -12.3°
Drops below altitude 10° 17:30:44 10° 193° (SSW) 3,050 5.4 -13.3°
Sets 17:33:52 0° 182° (S) 4,029 5.9 -13.8°
